Grand Junction, CO

7:32 PM MDT on April 19, 2018 (GMT -0600)
Walker

Weather History for KGJT - November, 2011

Change the Weather History Date:

Monday, November 7, 2011

  Actual Average Record
Temperature  
Mean Temperature 40 °F 43 °F  
Max Temperature 47 °F 55 °F 73 °F (1917)
Min Temperature 33 °F 31 °F 16 °F (1938)
Degree Days  
Heating Degree Days 25 22  
Month to date heating degree days 154 142  
Since 1 July heating degree days 529 590  
Cooling Degree Days 0 0  
Month to date cooling degree days 0 0  
Year to date cooling degree days 1222 1125  
Moisture  
Dew Point 29 °F    
Average Humidity 66    
Maximum Humidity 82    
Minimum Humidity 49    
Precipitation  
Precipitation 0.00 in 0.03 in 0.63 in (1929)
Month to date precipitation 0.38 0.20  
Year to date precipitation 9.24 8.30  
Snow  
Snow 0.00 in 0.10 in 4.20 in (1929)
Month to date snowfall T 0.3  
Since 1 July snowfall T 0.7  
Since 1 September snowfall T 0.7  
Snow Depth 0.00 in    
Sea Level Pressure  
Sea Level Pressure 29.95 in    
Wind  
Wind Speed 4 mph (WNW)    
Max Wind Speed 13 mph    
Max Gust Speed 16 mph    
Visibility 10 miles    
Events      
T = Trace of Precipitation, MM = Missing Value Source: NWS Daily Summary

Daily Weather History Graph

Daily Weather History Graph

Search for Another Location

Airport or City:

Trip Planner

Search our weather history database for the weather conditions in past years. The results will help you decide how hot, cold, wet, or windy it might be!

Date:

Astronomy

Nov. 07, 2011 Rise Set
Actual Time 6:48 AM MST 5:06 PM MST
Civil Twilight 6:20 AM MST 5:35 PM MST
Nautical Twilight 5:48 AM MST 6:06 PM MST
Astronomical Twilight 5:16 AM MST 6:38 PM MST
Moon 3:18 PM MST (11/7) 3:54 AM MST (11/7)
Length of Visible Light 11h 15m
Length of Day
10h 18m
Waxing Gibbous, 92% of the Moon is Illuminated
Nov 7
Waxing Gibbous
Nov 10
Full
Nov 18
Last Quarter
Nov 24
New
Dec 2
First Quarter

Hourly Weather History & Observations

Time (MST) Temp. Windchill Dew Point Humidity Pressure Visibility Wind Dir Wind Speed Gust Speed Precip Events Conditions
12:53 AM 37.9 °F 32.1 °F 30.0 °F 73% 29.96 in 10.0 mi ESE 8.1 mph - N/A   Overcast
1:53 AM 39.0 °F - 27.0 °F 62% 29.95 in 10.0 mi Calm Calm - N/A   Overcast
2:53 AM 37.9 °F - 28.9 °F 70% 29.95 in 10.0 mi Calm Calm - N/A   Overcast
3:53 AM 37.0 °F - 30.9 °F 79% 29.95 in 10.0 mi Calm Calm - N/A   Overcast
4:53 AM 37.0 °F 32.4 °F 30.0 °F 76% 29.95 in 10.0 mi West 5.8 mph - N/A   Overcast
5:53 AM 35.6 °F 32.8 °F 28.4 °F 75% 29.97 in 10.0 mi SW 3.5 mph - N/A   Overcast
6:53 AM 33.1 °F - 28.9 °F 85% 29.98 in 10.0 mi Calm Calm - N/A   Scattered Clouds
7:53 AM 36.0 °F - 30.9 °F 82% 29.99 in 10.0 mi Calm Calm - N/A   Overcast
8:53 AM 37.0 °F - 30.9 °F 79% 29.98 in 10.0 mi Calm Calm - N/A   Mostly Cloudy
9:53 AM 39.0 °F 36.8 °F 30.9 °F 73% 29.97 in 10.0 mi SSW 3.5 mph - N/A   Mostly Cloudy
10:53 AM 43.0 °F - 28.0 °F 56% 29.94 in 10.0 mi Calm Calm - N/A   Overcast
11:53 AM 46.0 °F - 28.0 °F 50% 29.90 in 10.0 mi Calm Calm - N/A   Overcast
12:53 PM 45.0 °F 42.6 °F 30.0 °F 56% 29.88 in 10.0 mi West 4.6 mph - N/A   Overcast
1:53 PM 46.0 °F 42.5 °F 30.0 °F 54% 29.87 in 10.0 mi WNW 6.9 mph - N/A   Overcast
2:53 PM 46.0 °F 40.6 °F 30.0 °F 54% 29.88 in 10.0 mi WNW 11.5 mph - N/A   Overcast
3:53 PM 46.4 °F 42.9 °F 28.4 °F 50% 29.92 in 10.0 mi NW 6.9 mph - N/A   Overcast
4:53 PM 43.0 °F 38.8 °F 30.9 °F 62% 29.91 in 10.0 mi North 6.9 mph - N/A   Mostly Cloudy
5:53 PM 42.1 °F 37.1 °F 30.0 °F 62% 29.94 in 10.0 mi North 8.1 mph - N/A   Mostly Cloudy
6:53 PM 39.2 °F 35.9 °F 32.0 °F 75% 29.97 in 10.0 mi NW 4.6 mph - N/A   Overcast
7:53 PM 39.0 °F - 30.9 °F 73% 29.98 in 10.0 mi Calm Calm - N/A   Scattered Clouds
8:53 PM 37.0 °F 34.5 °F 30.0 °F 76% 30.00 in 10.0 mi West 3.5 mph - N/A   Scattered Clouds
9:53 PM 36.0 °F 29.0 °F 28.0 °F 73% 30.00 in 10.0 mi WNW 9.2 mph - N/A   Clear
10:53 PM 35.1 °F 30.1 °F 27.0 °F 72% 29.99 in 10.0 mi NNW 5.8 mph - N/A   Partly Cloudy
11:53 PM 35.1 °F 31.0 °F 26.1 °F 70% 29.99 in 10.0 mi WNW 4.6 mph - N/A   Partly Cloudy